[[{"header":{"parameterUnit":"m.s-1","parameterCategory":1,"la1":30.2991,"la2":30.254,"lo1":-89.0895,"lo2":-89.0444,"dy":0.0017,"dx":0.0017,"nx":28,"ny":28,"refTime":"2025-03-20T09:00:00:Z","depth":0,"parameterNumber":2,"parameterNumberName":"U-component_of_WINDS"},"data":[0,0,0,0,0,0,0,0,0,0,0,0,0,0,0,0,0,0,0,0,0,0,0,0,0,0,0,0,0,0,0,0,0,0,0,0,0,0,0,0,0,0,0,0,0,0,0,0,0,0,0,0,0,0,0,0,0,0,0.1082,0.1081,0,0.1064,0.1064,0.1064,0.1114,0.1116,0.1117,0.1119,0.1097,0.1095,0.1093,0,0,0,0,0,0,0,0,0,0,0,0,0,0.1156,0.1154,0.1082,0.1081,0.1081,0.1064,0.1064,0.1064,0.1114,0.1116,0.1118,0.112,0.1097,0.1095,0.1093,0,0,0,0,0,0,0,0,0,0,0,0,0,0.1129,0.1153,0.1082,0.1104,0.1106,0.1064,0.1064,0.1064,0.1114,0.1116,0.1118,0.112,0.1098,0.1095,0.1092,0.1027,0,0,0.1083,0.1082,0,0,0,0,0,0,0,0,0.1131,0.1126,0.1101,0.1103,0.1105,0.1094,0.1082,0.1051,0.1113,0.1111,0.1119,0.1122,0.1094,0.1091,0.1083,0.1026,0.1025,0.1083,0.1081,0.108,0.1079,0,0,0,0,0,0,0,0.1132,0.1127,0.1075,0.1101,0.1103,0.1115,0.1113,0.1077,0.1089,0.1111,0.1115,0.1112,0.1095,0.1085,0.1082,0.1024,0.1083,0.108,0.1078,0.1077,0.0914,0.0912,0,0,0,0,0,0,0.1132,0.1129,0.1075,0.1074,0.1124,0.1111,0.111,0.1095,0.109,0.1091,0.111,0.1115,0.109,0.1086,0.1082,0.1005,0.108,0.1077,0.1075,0.0917,0.0914,0.0911,0,0,0,0,0,0,0.1133,0.1127,0.1076,0.1102,0.1097,0.1108,0.109,0.1093,0.1084,0.1089,0.1091,0.1098,0.1091,0.1086,0.1041,0.1005,0.1075,0.1073,0.092,0.0916,0.0912,0.0851,0,0,0,0,0,0,0.1135,0.1127,0.1102,0.1102,0.1095,0.1035,0.1088,0.1091,0.1079,0.1084,0.1078,0.108,0.1093,0.1045,0.1038,0.1002,0.107,0.0923,0.0918,0.0914,0.0856,0.0846,0.0837,0,0,0,0,0,0.1138,0.1084,0.1101,0.1094,0.1065,0.1033,0.1029,0.1047,0.1076,0.1051,0.1055,0.108,0.1011,0.104,0.1032,0.0995,0.0925,0.0919,0.0914,0.0861,0.0848,0.0837,0,0,0,0,0,0,0.1078,0.1084,0.1103,0.1048,0.104,0.1042,0.1011,0.1032,0.1015,0.102,0.1042,0.104,0.099,0.0989,0.1021,0.0932,0.0973,0.0965,0.0935,0.0923,0.0913,0.0914,0.1068,0,0,0,0,0,0.1059,0.1034,0.104,0.0991,0.0987,0.0999,0.0986,0.1001,0.0992,0.0989,0.0989,0.0979,0.0956,0.094,0.0918,0.0857,0.0857,0.0828,0.0818,0.081,0.0803,0.0772,0.0759,0.0893,0.0893,0.0893,0,0,0.1018,0.1019,0.1001,0.0979,0.0975,0.0947,0.0996,0.0964,0.0944,0.0984,0.0941,0.0941,0.0932,0.0879,0.0855,0.0876,0.0767,0.0803,0.0797,0.0794,0.0765,0.0752,0.0741,0.0889,0.089,0.089,0,0,0.093,0.0928,0.0888,0.0883,0.0877,0.0886,0.0876,0.0876,0.0878,0.0836,0.0866,0.0842,0.08,0.0793,0.0784,0.0696,0.0719,0.0689,0.0637,0.0606,0.0596,0.0586,0.0555,0.0544,0.0682,0.0682,0.0682,0,0.088,0.0841,0.0863,0.0831,0.0821,0.0858,0.0817,0.0811,0.0797,0.0789,0.0812,0.0763,0.0759,0.0705,0.0684,0.0675,0.0665,0.0688,0.0596,0.0587,0.0578,0.0549,0.0537,0.0678,0.0679,0.0679,0.0679,0,0.0779,0.0752,0.072,0.0708,0.0695,0.0658,0.0675,0.0658,0.0675,0.0682,0.0639,0.0637,0.0616,0.0605,0.0619,0.0553,0.0566,0.0592,0.0633,0.0562,0.0534,0.0523,0.0673,0.0674,0.0675,0.0676,0,0,0.065,0.0654,0.0642,0.0638,0.0635,0.0614,0.0579,0.0561,0.0546,0.0536,0.0508,0.0473,0.0499,0.0488,0.0503,0.0476,0.0408,0.0506,0.0506,0.0487,0.0335,0.0315,0.0301,0.0423,0.0421,0.042,0.0336,0,0.0563,0.0506,0.0527,0.0467,0.0443,0.0479,0.0449,0.0444,0.045,0.043,0.0436,0.0412,0.0447,0.0441,0.0416,0.0421,0.0377,0.0428,0.0396,0.0395,0.0396,0.0287,0.0265,0.0186,0.0325,0.0323,0.0322,0,0.0454,0.0442,0.038,0.0384,0.0375,0.0347,0.0333,0.0314,0.0309,0.0315,0.0305,0.0327,0.0293,0.0335,0.0289,0.0323,0.0312,0.0312,0.031,0.0306,0.0353,0.028,0.0161,0.0149,0.0306,0.0307,0.0308,0,0.0365,0.0334,0.0294,0.0289,0.0292,0.0273,0.0273,0.0271,0.0259,0.0247,0.0239,0.0222,0.0213,0.0199,0.0215,0.0245,0.0167,0.021,0.0171,0.017,0.0151,0.0152,0.0027,0.0145,0.0145,0.0146,0.0146,0,0.0266,0.0226,0.0255,0.023,0.0187,0.0212,0.0169,0.0173,0.0172,0.0148,0.0179,0.0155,0.0179,0.0158,0.017,0.013,0.0125,0.0129,0.0133,0.0126,0.0125,0.0118,0.0123,0.0142,0.0143,0.0144,0.0144,0,0.0159,0.0176,0.0135,0.0143,0.0144,0.0112,0.0118,0.0095,0.0105,0.0075,0.0069,0.0084,0.0061,0.0077,0.0053,0.0061,0.0009,0.002,0.0011,0.0014,-0.0027,-0.0024,-0.0161,-0.0178,-0.0049,-0.0051,-0.0052,0,0.0093,0.0065,0.007,0.0058,0.0057,0.0035,0.0025,0.0049,0.0036,0.003,0.0008,-0.0012,-0.0027,-0.0065,-0.0057,-0.0075,-0.0064,-0.011,-0.0066,-0.0072,-0.0065,-0.0064,-0.0066,-0.012,-0.0122,-0.0123,-0.0124,0,-0.0025,-0.0014,-0.003,-0.0042,-0.0055,-0.0064,-0.0071,-0.0084,-0.0059,-0.0075,-0.0096,-0.0108,-0.013,-0.015,-0.0164,-0.0164,-0.0141,-0.0137,-0.0148,-0.0156,-0.016,-0.0158,-0.0014,-0.0135,-0.0134,-0.0133,-0.0132,-0.0132,-0.0113,-0.0136,-0.0135,-0.0153,-0.0155,-0.0161,-0.0182,-0.0173,-0.019,-0.0206,-0.019,-0.0217,-0.0219,-0.0235,-0.0238,-0.0258,-0.0239,-0.0254,-0.0258,-0.0262,-0.0268,-0.0155,-0.0261,-0.026,-0.026,-0.026,-0.026,0,-0.0229,-0.0226,-0.0243,-0.0252,-0.0266,-0.0239,-0.0244,-0.0259,-0.0282,-0.0285,-0.0299,-0.0323,-0.0342,-0.0334,-0.035,-0.0368,-0.0357,-0.0373,-0.0372,-0.0373,-0.0284,-0.0274,-0.0381,-0.0381,-0.0381,-0.0381,-0.0381,-0.0381,-0.0292,-0.0329,-0.0318,-0.0355,-0.0352,-0.0376,-0.0381,-0.0387,-0.0389,-0.0417,-0.0431,-0.0425,-0.0424,-0.0439,-0.0455,-0.0452,-0.046,-0.048,-0.0473,-0.0391,-0.0379,-0.0368,-0.0358,-0.0481,-0.0482,-0.056,-0.0561,-0.0561]},{"header":{"parameterUnit":"m.s-1","parameterCategory":1,"la1":30.2991,"la2":30.254,"lo1":-89.0895,"lo2":-89.0444,"dy":0.0017,"dx":0.0017,"nx":28,"ny":28,"refTime":"2025-03-20T09:00:00:Z","depth":0,"parameterNumber":3,"parameterNumberName":"V-component_of_WINDS"},"data":[0,0,0,0,0,0,0,0,0,0,0,0,0,0,0,0,0,0,0,0,0,0,0,0,0,0,0,0,0,0,0,0,0,0,0,0,0,0,0,0,0,0,0,0,0,0,0,0,0,0,0,0,0,0,0,0,0,0,-4.9492,-4.9494,0,-4.9655,-4.9657,-4.9658,-4.958,-4.9576,-4.9572,-4.9568,-4.9731,-4.9739,-4.9747,0,0,0,0,0,0,0,0,0,0,0,0,0,-4.9109,-4.9116,-4.9492,-4.9494,-4.9496,-4.9654,-4.9657,-4.9659,-4.9581,-4.9576,-4.9571,-4.9566,-4.9728,-4.9738,-4.9748,0,0,0,0,0,0,0,0,0,0,0,0,0,-4.9274,-4.9119,-4.9492,-4.9476,-4.9477,-4.9654,-4.9657,-4.9659,-4.9582,-4.9576,-4.957,-4.9564,-4.9725,-4.9737,-4.9749,-4.995,0,0,-4.9787,-4.9792,0,0,0,0,0,0,0,0,-4.9265,-4.9288,-4.9477,-4.9478,-4.9478,-4.9591,-4.9581,-4.9757,-4.9584,-4.9542,-4.9568,-4.9561,-4.9689,-4.9704,-4.9748,-4.9958,-4.9965,-4.9788,-4.9796,-4.9801,-4.9804,0,0,0,0,0,0,0,-4.9253,-4.928,-4.9556,-4.9479,-4.9481,-4.946,-4.9476,-4.9614,-4.9648,-4.9545,-4.954,-4.956,-4.9688,-4.9737,-4.9751,-4.9967,-4.9788,-4.9799,-4.9806,-4.9811,-5.0346,-5.0353,0,0,0,0,0,0,-4.9243,-4.9272,-4.9551,-4.9561,-4.9354,-4.9472,-4.949,-4.9561,-4.9647,-4.9654,-4.9565,-4.9556,-4.9719,-4.9737,-4.9757,-4.9996,-4.9801,-4.9812,-4.9819,-5.034,-5.0348,-5.0355,0,0,0,0,0,0,-4.9235,-4.9269,-4.9544,-4.9415,-4.9449,-4.9485,-4.9565,-4.9568,-4.9615,-4.9662,-4.9667,-4.9609,-4.9714,-4.974,-4.9902,-5.0001,-4.9818,-4.9829,-5.0332,-5.0342,-5.0352,-5.0477,0,0,0,0,0,0,-4.9224,-4.9266,-4.9344,-4.9417,-4.9456,-4.9689,-4.9571,-4.9575,-4.9637,-4.9627,-4.9704,-4.9711,-4.9711,-4.9884,-4.9915,-5.0014,-4.9839,-5.0323,-5.0336,-5.0348,-5.0464,-5.049,-5.0513,0,0,0,0,0,-4.9211,-4.9373,-4.9349,-4.9383,-4.9554,-4.9695,-4.9717,-4.9715,-4.9646,-4.9723,-4.9753,-4.9708,-4.9985,-4.9902,-4.9935,-5.004,-5.0317,-5.0333,-5.0347,-5.0454,-5.0485,-5.0512,0,0,0,0,0,0,-4.931,-4.9382,-4.9356,-4.9547,-4.9616,-4.9682,-4.978,-4.9749,-4.9838,-4.9824,-4.9817,-4.9835,-5.0004,-5.0038,-4.9944,-5.0237,-5.014,-5.0163,-5.0209,-5.024,-5.0263,-5.0251,-4.9849,0,0,0,0,0,-4.9354,-4.9464,-4.9521,-4.9683,-4.9719,-4.9744,-4.9805,-4.9798,-4.9868,-4.9896,-4.9938,-5.0006,-5.0108,-5.0176,-5.0272,-5.0469,-5.0483,-5.0557,-5.0581,-5.0601,-5.062,-5.0724,-5.0757,-5.0406,-5.0406,-5.0405,0,0,-4.9447,-4.95,-4.9569,-4.9705,-4.9757,-4.9869,-4.9769,-4.9892,-4.9974,-4.9914,-5.0071,-5.0104,-5.0179,-5.0359,-5.044,-5.0393,-5.072,-5.062,-5.0636,-5.0645,-5.0744,-5.0777,-5.0806,-5.0416,-5.0414,-5.0413,0,0,-4.9672,-4.9724,-4.9864,-4.9918,-4.9999,-5.0014,-5.0047,-5.0118,-5.0138,-5.0294,-5.0251,-5.0348,-5.0525,-5.058,-5.0631,-5.0875,-5.0836,-5.0906,-5.1032,-5.1134,-5.1162,-5.1186,-5.1272,-5.1302,-5.0926,-5.0926,-5.0926,0,-4.9776,-4.9945,-4.994,-5.0067,-5.0126,-5.0077,-5.0218,-5.0271,-5.0378,-5.042,-5.0365,-5.0584,-5.0632,-5.0823,-5.0882,-5.0926,-5.0963,-5.0898,-5.1158,-5.1183,-5.1205,-5.1287,-5.1319,-5.0934,-5.0933,-5.0932,-5.0931,0,-5.0068,-5.0185,-5.0289,-5.0394,-5.0465,-5.0599,-5.0612,-5.0685,-5.067,-5.0691,-5.0849,-5.0905,-5.1011,-5.1055,-5.1043,-5.1244,-5.1212,-5.1158,-5.106,-5.1247,-5.1323,-5.1354,-5.0945,-5.0942,-5.094,-5.0938,0,0,-5.0362,-5.0462,-5.05,-5.0546,-5.063,-5.072,-5.0849,-5.0954,-5.1015,-5.109,-5.1197,-5.1347,-5.1297,-5.1355,-5.1348,-5.1437,-5.1624,-5.1372,-5.1373,-5.1416,-5.1848,-5.1887,-5.1924,-5.1599,-5.1605,-5.161,-5.1841,0,-5.0592,-5.0821,-5.0819,-5.1029,-5.1136,-5.109,-5.1203,-5.1265,-5.1287,-5.1379,-5.1402,-5.1508,-5.1435,-5.1469,-5.1556,-5.1583,-5.1711,-5.1567,-5.1697,-5.1702,-5.168,-5.1964,-5.2007,-5.2222,-5.1871,-5.1876,-5.1879,0,-5.0892,-5.0977,-5.1199,-5.1265,-5.131,-5.1411,-5.1505,-5.1595,-5.1664,-5.1673,-5.1737,-5.1716,-5.1845,-5.1743,-5.192,-5.1822,-5.1875,-5.1896,-5.1904,-5.1916,-5.1802,-5.1982,-5.2291,-5.2323,-5.1927,-5.1923,-5.1919,0,-5.1082,-5.1252,-5.1406,-5.1447,-5.1529,-5.1601,-5.1638,-5.1701,-5.1763,-5.1845,-5.1885,-5.198,-5.2033,-5.2106,-5.211,-5.2035,-5.2288,-5.2186,-5.2297,-5.2298,-5.2353,-5.2349,-5.2674,-5.2388,-5.2388,-5.2387,-5.2386,0,-5.134,-5.1477,-5.1493,-5.1588,-5.1739,-5.1734,-5.1883,-5.1914,-5.197,-5.2068,-5.2033,-5.2126,-5.2125,-5.2219,-5.2222,-5.2367,-5.2391,-5.2401,-5.24,-5.2404,-5.2403,-5.2438,-5.2423,-5.2396,-5.2394,-5.2392,-5.2391,0,-5.1579,-5.1595,-5.176,-5.1823,-5.1842,-5.1951,-5.2004,-5.2093,-5.211,-5.2235,-5.2264,-5.2291,-5.2399,-5.241,-5.2536,-5.2538,-5.2713,-5.2696,-5.269,-5.2687,-5.2797,-5.2786,-5.3155,-5.3203,-5.2887,-5.289,-5.2893,0,-5.1742,-5.1846,-5.192,-5.1984,-5.2025,-5.2128,-5.2191,-5.219,-5.2257,-5.2342,-5.242,-5.2525,-5.2609,-5.2783,-5.2814,-5.2909,-5.2894,-5.3016,-5.2908,-5.2908,-5.2894,-5.2888,-5.2897,-5.3037,-5.3041,-5.3044,-5.3046,0,-5.2029,-5.2031,-5.2124,-5.222,-5.2296,-5.2371,-5.2441,-5.2495,-5.2502,-5.2578,-5.2689,-5.2754,-5.2882,-5.2986,-5.3079,-5.3114,-5.3082,-5.308,-5.311,-5.3115,-5.3107,-5.3112,-5.2747,-5.3071,-5.3069,-5.3067,-5.3066,-5.3065,-5.2235,-5.2324,-5.239,-5.2494,-5.2546,-5.2612,-5.2699,-5.2727,-5.2819,-5.2924,-5.2917,-5.3039,-5.3102,-5.3224,-5.3266,-5.336,-5.3319,-5.3363,-5.3374,-5.3385,-5.3396,-5.3092,-5.3377,-5.3376,-5.3375,-5.3375,-5.3374,0,-5.2519,-5.2559,-5.2654,-5.2753,-5.2835,-5.2797,-5.2872,-5.2942,-5.3049,-5.3112,-5.3195,-5.3321,-5.342,-5.3458,-5.3555,-5.3622,-5.3609,-5.3648,-5.3643,-5.3651,-5.3428,-5.3392,-5.3657,-5.3657,-5.3657,-5.3656,-5.3656,-5.3656,-5.2677,-5.2826,-5.2836,-5.301,-5.3048,-5.3168,-5.3213,-5.3273,-5.3323,-5.3465,-5.3548,-5.3572,-5.3624,-5.3724,-5.3813,-5.3821,-5.3858,-5.3903,-5.3904,-5.3695,-5.3667,-5.364,-5.3605,-5.3911,-5.3911,-5.4119,-5.4121,-5.4123]}]]